Theta_e
299 300 300 299 300 300 301 301 301 302 302 302 302 304 306 308 310 310 310 310 310 309 311 311 314 315 316 315 315 314 310 310 311 310 312 312 312 313 313 312 312 313 312 311 312
300 300 299 299 299 300 300 301 302 302 303 303 303 304 306 308 309 311 309 309 309 309 312 312 313 314 313 313 312 309 308 310 310 310 312 312 312 312 313 311 311 312 312 312 312
306 302 300 300 300 300 300 300 301 302 304 304 303 304 305 308 310 311 310 309 309 309 311 313 313 314 314 313 312 309 308 310 313 313 313 312 312 313 312 310 311 312 312 312 312
317 314 308 301 300 300 300 300 301 301 303 304 304 304 306 308 314 313 310 309 309 309 311 314 313 314 312 312 312 311 311 312 313 313 313 312 312 311 312 313 312 312 313 313 312
322 319 318 313 304 301 300 300 300 301 301 303 304 305 306 309 310 313 309 310 309 309 311 312 313 313 312 311 311 311 311 313 313 313 312 312 311 310 311 312 312 312 312 312 310
321 322 321 319 315 305 301 300 300 300 301 301 304 305 308 307 312 313 311 310 309 310 311 312 313 313 312 312 311 312 312 312 313 312 312 312 311 311 311 311 311 312 312 311 310
319 321 322 322 320 317 306 301 300 300 300 301 302 305 306 309 313 312 310 309 309 311 311 313 313 313 313 311 313 312 311 309 311 312 311 310 309 309 311 311 311 312 312 311 311
317 319 322 322 322 321 319 305 301 300 300 300 301 304 308 311 310 312 309 309 310 311 310 312 314 314 314 313 310 311 309 310 310 311 311 309 312 308 309 310 311 311 311 311 311
318 319 321 322 322 322 321 319 304 301 300 300 301 303 305 311 312 310 309 309 310 310 312 313 314 313 312 309 307 307 309 310 309 310 311 309 311 308 309 309 310 311 311 311 311
316 316 320 321 321 321 322 321 317 302 301 301 302 304 304 309 310 309 308 310 310 310 311 312 311 308 308 307 313 310 311 310 310 310 310 310 310 310 310 310 310 311 311 311 311
318 318 320 319 320 321 321 321 308 304 304 302 304 305 309 309 309 309 308 310 311 311 309 310 307 307 308 309 311 311 312 311 309 309 310 309 309 309 308 308 307 309 310 311 311
316 318 318 319 320 321 320 320 309 305 301 302 305 307 309 310 309 308 308 309 310 308 310 310 310 308 307 308 311 310 310 309 307 307 308 307 307 307 305 305 306 306 307 309 310
313 316 317 320 319 319 320 320 317 302 300 302 302 306 308 309 309 309 308 310 308 309 310 311 311 309 310 310 311 310 309 306 308 307 306 304 308 307 307 308 309 308 307 308 310
310 312 315 318 318 319 319 319 319 315 311 311 304 305 308 309 308 309 308 309 309 308 308 310 309 310 310 310 309 311 308 308 309 307 307 304 310 306 304 305 308 308 307 308 309
307 309 312 312 315 318 318 319 307 313 322 308 304 306 308 305 307 308 308 309 308 308 308 309 309 309 309 309 307 309 307 308 308 308 308 306 304 308 304 307 308 307 307 308 309
305 307 308 311 313 315 317 312 306 313 320 308 305 307 306 307 308 308 309 309 308 307 307 307 307 307 308 306 307 306 308 307 306 306 307 304 305 309 303 307 306 307 308 308 307
298 305 306 309 311 314 313 308 311 318 310 308 306 306 306 307 308 308 308 308 307 307 308 308 308 306 306 307 307 306 306 308 309 309 313 307 308 310 307 305 307 305 308 308 308
291 296 303 307 309 310 306 307 315 314 314 305 306 304 306 307 308 307 307 308 306 306 307 308 309 306 305 307 307 306 306 309 312 310 309 307 310 310 305 305 307 307 307 309 308
291 293 296 306 308 309 308 311 316 312 310 308 306 306 305 307 308 308 306 306 305 305 310 307 310 305 306 306 306 307 307 305 306 298 306 307 305 304 303 303 306 306 306 308 309
291 293 296 301 306 307 306 311 312 311 307 307 315 308 306 306 308 307 307 306 307 305 305 307 310 306 306 306 306 306 304 307 304 307 308 307 306 308 307 306 303 304 304 307 307
292 298 300 303 304 304 306 308 308 310 309 309 311 308 308 307 306 307 308 307 306 305 305 306 308 307 306 306 306 306 306 306 304 305 309 309 313 304 306 305 304 303 306 307 307
293 295 300 302 302 300 305 305 308 310 309 309 310 311 307 306 307 306 307 306 307 305 307 306 306 306 307 305 304 304 305 304 307 307 304 306 309 305 304 304 304 305 307 307 307
291 293 297 300 303 302 301 305 305 310 310 310 311 310 308 308 309 307 306 305 305 305 307 306 303 302 305 305 302 305 304 304 303 304 306 308 310 303 303 303 304 304 305 307 307
291 292 296 300 298 300 303 305 306 307 308 310 312 310 308 308 307 309 307 305 305 305 307 307 304 310 315 315 305 306 305 304 305 304 307 306 308 308 307 305 303 306 306 307 307
291 291 293 295 296 295 300 301 305 307 305 307 310 312 312 310 309 309 306 305 305 306 305 305 303 303 305 304 305 306 305 303 305 307 309 311 306 310 307 305 304 307 308 307 307
291 293 291 291 294 293 299 297 301 298 303 305 308 309 311 313 312 310 309 306 308 305 305 305 306 302 305 304 304 303 304 304 304 306 305 306 306 307 305 308 306 306 305 306 307
290 291 291 290 290 292 295 295 296 296 299 298 299 303 308 310 310 311 307 307 307 306 306 306 302 306 309 302 300 310 304 303 304 302 306 306 309 307 307 304 305 308 309 308 307
Wind_Speed
8 8 10 10 10 8 7 7 6 6 5 4 4 3 3 5 4 4 3 3 2 3 4 5 6 7 7 4 4 4 4 2 4 5 1 2 2 3 2 2 4 5 5 6 6
8 7 8 10 10 10 9 8 7 7 7 5 4 4 4 4 5 4 3 3 3 4 6 6 6 7 4 4 3 4 3 7 3 3 2 2 4 1 1 3 6 10 12 11 9
12 9 8 8 10 10 9 9 9 8 8 7 6 5 5 3 3 3 4 4 4 5 7 8 7 6 3 3 3 4 4 3 2 3 2 2 2 3 2 5 14 12 16 14 10
13 13 11 9 9 10 10 10 9 9 8 7 6 6 4 3 2 4 5 4 4 4 6 6 6 4 3 3 2 1 3 3 1 3 2 2 2 4 12 11 7 7 10 14 12
16 15 14 13 10 10 10 10 10 10 9 8 6 5 3 4 5 5 4 4 4 5 6 7 7 4 4 4 2 2 1 2 3 4 5 5 8 8 17 19 18 15 11 12 12
17 17 15 15 13 11 11 11 11 10 10 9 7 6 5 3 5 5 4 4 4 6 8 8 6 5 5 2 1 1 3 4 3 3 4 2 3 1 6 5 21 18 15 13 12
13 17 16 15 15 14 11 11 12 11 10 10 8 6 8 8 7 6 5 4 6 6 7 7 6 4 4 3 1 1 5 6 2 2 1 2 7 10 21 13 12 19 17 15 13
15 15 17 16 14 14 13 11 11 12 10 9 8 7 6 8 10 7 6 5 5 5 6 6 6 5 2 5 4 4 4 5 2 4 0 3 9 4 4 14 17 19 19 18 15
20 18 19 17 15 15 13 13 11 12 11 9 7 6 5 5 9 8 7 6 6 7 7 7 5 4 3 4 4 6 3 2 8 6 1 4 8 4 5 11 15 18 21 19 16
21 22 20 17 16 16 15 14 13 11 10 10 10 5 6 5 7 8 8 8 5 9 7 3 4 3 3 3 3 2 3 5 6 1 3 5 19 15 18 15 22 23 22 21 19
18 19 20 16 16 18 17 10 6 4 6 7 3 2 3 6 7 8 9 9 8 4 3 3 4 5 7 5 3 2 2 5 4 0 3 8 17 21 18 23 22 29 29 26 21
17 19 24 21 17 20 16 9 5 5 7 11 17 12 6 8 4 10 11 6 4 4 4 4 5 4 3 3 4 2 2 5 5 2 2 6 21 16 6 6 12 20 25 28 22
15 15 21 22 23 19 17 14 8 4 3 6 11 10 9 12 5 12 14 7 3 5 5 5 0 4 4 3 4 2 4 3 5 6 1 8 9 5 1 3 5 6 10 16 24
17 16 11 19 20 22 21 16 10 4 3 5 5 5 11 9 4 9 14 5 2 8 7 4 1 4 3 3 5 2 2 2 2 5 4 5 5 7 4 7 2 1 6 11 18
21 19 11 10 6 16 14 14 11 6 3 2 3 4 9 6 10 3 11 5 7 6 6 5 5 3 3 4 6 4 3 2 1 1 3 3 3 8 4 4 1 4 7 13 15
25 21 19 12 21 16 16 17 19 3 9 3 3 3 5 1 1 5 4 4 4 4 2 1 0 3 4 3 1 5 4 4 3 2 2 3 4 6 3 3 1 2 12 14 15
21 26 19 14 11 19 18 16 3 5 2 3 4 4 3 4 2 3 5 5 6 5 5 1 2 2 4 5 3 3 4 2 4 2 5 3 1 10 5 6 4 4 14 16 15
20 21 23 20 18 10 26 2 5 5 5 3 3 5 5 6 3 5 6 5 5 2 3 7 5 8 5 4 6 5 5 4 6 3 4 3 6 6 5 2 7 9 6 16 16
21 15 17 22 19 11 14 5 6 6 7 9 4 4 3 4 5 4 6 5 9 11 7 6 2 2 2 3 4 5 5 2 5 2 3 3 7 8 5 7 2 6 9 19 19
19 13 11 14 16 20 5 8 4 3 6 4 7 7 8 6 6 7 9 6 7 13 3 6 3 1 1 4 2 4 4 2 2 2 4 4 5 5 5 7 7 6 13 18 18
14 6 2 8 12 11 4 5 5 9 5 6 6 5 6 8 7 6 6 3 6 6 7 6 4 1 2 7 8 4 3 0 1 3 4 1 5 5 4 4 9 9 17 20 20
6 3 2 9 4 3 3 5 4 3 3 2 2 3 8 9 8 5 10 5 12 13 10 5 5 4 7 1 2 4 6 7 4 5 3 1 6 1 3 1 5 10 16 19 19
9 7 5 9 3 2 3 3 2 3 4 6 4 3 4 7 3 7 6 2 13 9 15 8 2 3 5 3 3 5 6 5 2 2 6 5 5 1 3 5 6 9 12 19 21
4 3 4 3 1 1 3 3 4 8 2 3 3 2 3 1 3 2 4 0 3 7 6 11 3 6 8 4 5 6 6 9 7 3 3 6 7 6 3 4 4 5 7 16 21
2 2 4 3 4 5 3 5 3 3 4 5 3 12 7 5 4 5 3 0 2 3 4 5 6 5 2 3 3 4 5 11 12 13 9 2 11 15 10 9 10 9 9 12 20
1 3 5 6 7 7 2 8 9 7 5 2 6 4 7 9 10 6 7 4 5 3 5 4 3 3 2 2 2 3 7 10 15 12 13 13 24 13 18 12 12 11 11 18 19
3 3 2 6 4 3 4 5 7 10 5 11 14 7 6 7 18 20 13 11 10 7 6 5 6 3 4 1 2 9 13 15 8 8 12 10 23 4 2 6 10 15 20 24 23
Wind_Direction
317 319 321 323 328 333 337 336 338 332 326 325 317 289 256 238 228 221 222 246 235 226 186 168 161 167 167 168 145 132 64 249 242 176 233 220 196 217 252 231 213 220 236 239 220
313 311 310 312 314 318 322 325 323 326 331 332 322 305 279 248 241 245 226 236 216 204 178 169 169 174 171 170 144 104 136 226 206 191 221 214 207 256 308 244 243 242 235 227 234
328 316 308 304 302 305 309 315 319 325 332 334 325 311 300 280 282 234 220 228 211 188 186 182 192 189 173 165 175 150 201 217 237 214 224 223 251 226 194 256 233 231 240 231 245
323 324 324 309 303 299 301 303 309 315 321 322 315 307 293 241 222 194 215 217 196 182 180 173 186 189 145 175 166 223 228 208 209 211 223 234 276 267 222 239 259 259 240 233 253
315 317 317 321 315 304 298 296 298 303 305 310 308 298 265 231 236 215 229 215 191 191 182 191 191 164 172 170 166 192 279 239 268 254 256 259 253 253 264 262 253 253 234 239 250
309 307 312 315 317 316 306 299 295 295 297 303 302 292 262 260 227 218 229 225 200 195 197 190 193 161 126 115 150 299 280 284 281 257 260 259 269 345 254 274 230 231 233 240 249
301 300 301 308 315 315 316 303 295 292 291 293 292 278 258 251 228 215 201 196 196 193 189 176 154 160 145 127 46 329 350 333 230 211 273 9 277 232 248 250 222 222 230 235 247
295 298 295 294 303 312 312 313 298 291 286 280 278 274 254 224 217 214 199 188 175 175 171 155 139 134 80 118 26 38 55 359 3 136 48 94 273 272 263 220 227 226 228 232 242
282 288 288 287 290 301 310 307 306 289 282 277 268 253 252 211 211 202 192 187 157 149 130 131 144 90 82 73 12 17 274 249 315 199 86 171 274 259 228 214 230 227 229 234 243
274 276 274 282 288 293 303 313 300 289 269 267 246 267 235 206 186 187 183 170 157 140 121 137 78 75 46 83 234 245 265 260 254 291 227 256 261 261 253 240 241 239 237 235 241
270 272 267 267 282 287 295 317 310 264 245 224 211 204 175 180 169 181 173 163 138 130 118 33 82 205 215 188 118 111 221 264 270 318 272 245 272 277 265 238 239 245 242 236 236
266 258 265 267 268 276 280 290 286 300 307 258 241 235 211 187 189 181 169 174 146 132 114 39 235 208 143 147 191 215 294 278 282 301 249 320 291 285 260 237 243 252 245 233 224
270 262 247 267 261 263 269 267 278 329 270 269 233 224 203 203 228 189 179 150 122 127 175 164 14 111 134 136 153 211 187 243 249 324 246 312 291 332 287 289 290 281 242 225 217
273 270 277 248 260 254 258 260 255 248 14 253 212 210 185 167 217 189 179 150 100 180 154 231 289 156 140 178 136 276 178 162 330 15 272 8 280 303 312 308 289 258 205 197 197
272 270 270 207 236 220 242 222 157 125 264 93 155 158 163 180 130 158 177 160 157 167 130 231 161 156 155 203 167 220 104 102 68 47 337 357 63 270 334 345 316 207 184 170 179
267 269 267 282 237 245 220 170 141 91 240 160 114 150 119 90 93 108 133 111 123 110 57 207 157 171 183 77 98 140 79 50 55 54 339 220 131 284 258 213 203 199 199 183 181
285 262 261 252 232 236 194 151 100 221 31 186 178 163 129 151 143 148 160 169 160 123 194 65 215 165 141 90 39 90 88 323 342 7 226 150 76 247 250 229 203 190 201 191 191
309 270 260 245 242 243 165 92 192 203 190 129 107 113 178 154 191 168 137 193 236 132 123 160 273 171 181 178 178 181 170 173 215 223 285 109 234 250 210 236 255 231 217 194 197
317 292 263 248 238 240 188 215 199 192 159 143 116 127 236 202 148 141 203 210 199 182 183 160 251 68 94 129 129 187 205 170 107 51 37 232 279 285 256 264 230 202 191 194 198
323 312 262 250 242 201 220 231 237 250 127 154 181 158 181 194 158 187 183 209 204 186 169 202 102 321 150 111 85 180 170 93 347 172 253 275 275 246 256 235 216 213 206 200 196
332 311 268 217 221 191 215 230 222 237 203 162 192 140 189 178 184 201 200 264 212 179 158 148 114 328 126 211 172 145 212 90 154 174 182 259 261 213 244 213 205 220 212 204 198
340 276 327 174 169 211 221 184 231 225 168 302 216 151 169 170 182 218 214 237 178 142 182 187 120 166 204 279 190 161 192 177 158 217 234 140 274 247 227 312 204 229 219 211 208
343 288 285 211 211 217 277 260 263 231 175 200 224 206 135 171 204 194 198 312 175 158 159 180 214 82 354 349 334 219 190 168 122 79 209 156 252 167 236 265 252 253 237 215 210
2 317 311 268 32 23 307 247 218 231 262 234 252 152 109 131 241 156 227 331 294 191 199 148 159 178 188 182 132 196 191 180 157 147 212 229 282 277 271 267 259 249 237 216 217
29 301 331 348 355 349 299 342 317 255 227 208 260 214 172 184 185 220 202 59 326 216 174 165 196 168 208 136 139 185 180 185 201 210 202 215 232 249 243 240 240 240 233 222 220
93 330 358 348 342 346 26 13 6 343 333 311 287 231 225 210 204 187 185 172 203 195 195 205 184 117 294 219 246 259 223 194 214 233 249 260 277 268 239 249 263 265 251 238 237
15 13 352 345 350 15 13 16 18 6 20 35 340 318 276 295 288 250 195 197 155 163 200 180 134 112 256 117 137 279 206 191 198 212 210 202 239 243 148 200 245 266 269 268 259